Time,TemperatureF,DewpointF,PressureIn,WindDirection,WindDirectionDegrees,WindSpeedMPH,WindSpeedGustMPH,Humidity,HourlyPrecipIn,Conditions,Clouds,dailyrainin,SoftwareType,DateUTC
2013-11-24 00:10:00,27.7,26.0,30.27,SE,143,0.0,0.0,94,0.00,,,0.00,weatherlink.com 1.10,2013-11-24 07:10:00,
2013-11-24 00:25:00,27.6,26.0,30.27,SE,143,0.0,0.0,94,0.00,,,0.00,weatherlink.com 1.10,2013-11-24 07:25:00,
2013-11-24 00:40:00,27.7,26.0,30.27,SE,143,0.0,1.0,94,0.00,,,0.00,weatherlink.com 1.10,2013-11-24 07:40:00,
2013-11-24 00:55:00,27.9,26.0,30.27,SE,143,0.0,1.0,93,0.00,,,0.00,weatherlink.com 1.10,2013-11-24 07:55:00,
2013-11-24 01:10:00,27.8,26.0,30.26,SE,143,0.0,0.0,93,0.00,,,0.00,weatherlink.com 1.10,2013-11-24 08:10:00,
2013-11-24 01:25:00,27.4,26.0,30.26,SE,143,0.0,0.0,93,0.00,,,0.00,weatherlink.com 1.10,2013-11-24 08:25:00,
2013-11-24 01:40:00,26.9,25.0,30.26,SE,143,0.0,0.0,93,0.00,,,0.00,weatherlink.com 1.10,2013-11-24 08:40:00,
2013-11-24 01:55:00,26.5,25.0,30.25,SE,143,0.0,0.0,93,0.00,,,0.00,weatherlink.com 1.10,2013-11-24 08:55:00,
2013-11-24 02:10:00,26.7,25.0,30.24,SSE,152,0.0,0.0,94,0.00,,,0.00,weatherlink.com 1.10,2013-11-24 09:10:00,
2013-11-24 02:25:00,26.4,25.0,30.24,SSE,152,0.0,0.0,94,0.00,,,0.00,weatherlink.com 1.10,2013-11-24 09:25:00,
2013-11-24 02:40:00,25.4,24.0,30.23,SSE,152,0.0,0.0,93,0.00,,,0.00,weatherlink.com 1.10,2013-11-24 09:40:00,
2013-11-24 02:55:00,24.2,23.0,30.22,SSE,152,0.0,0.0,93,0.00,,,0.00,weatherlink.com 1.10,2013-11-24 09:55:00,
2013-11-24 03:10:00,23.3,21.0,30.23,South,176,0.0,1.0,92,0.00,,,0.00,weatherlink.com 1.10,2013-11-24 10:10:00,
2013-11-24 03:25:00,22.7,21.0,30.24,South,171,0.0,1.0,93,0.00,,,0.00,weatherlink.com 1.10,2013-11-24 10:25:00,
2013-11-24 03:40:00,22.3,20.0,30.24,South,171,0.0,0.0,92,0.00,,,0.00,weatherlink.com 1.10,2013-11-24 10:40:00,
2013-11-24 03:55:00,22.3,21.0,30.24,South,171,0.0,0.0,93,0.00,,,0.00,weatherlink.com 1.10,2013-11-24 10:55:00,
2013-11-24 04:10:00,22.7,21.0,30.24,SSE,163,0.0,1.0,93,0.00,,,0.00,weatherlink.com 1.10,2013-11-24 11:10:00,
2013-11-24 04:25:00,22.9,21.0,30.24,SSE,163,0.0,0.0,93,0.00,,,0.00,weatherlink.com 1.10,2013-11-24 11:25:00,
2013-11-24 04:40:00,22.8,21.0,30.23,SSE,163,0.0,0.0,93,0.00,,,0.00,weatherlink.com 1.10,2013-11-24 11:40:00,
2013-11-24 04:55:00,22.3,20.0,30.22,SSE,163,0.0,0.0,92,0.00,,,0.00,weatherlink.com 1.10,2013-11-24 11:55:00,
2013-11-24 05:11:00,21.4,20.0,30.21,SSE,163,0.0,0.0,92,0.00,,,0.00,weatherlink.com 1.10,2013-11-24 12:11:00,
2013-11-24 05:26:00,20.4,19.0,30.21,SSE,163,0.0,0.0,92,0.00,,,0.00,weatherlink.com 1.10,2013-11-24 12:26:00,
2013-11-24 05:41:00,19.2,17.0,30.21,SSE,164,0.0,0.0,91,0.00,,,0.00,weatherlink.com 1.10,2013-11-24 12:41:00,
2013-11-24 05:56:00,18.2,16.0,30.21,South,179,0.0,1.0,90,0.00,,,0.00,weatherlink.com 1.10,2013-11-24 12:56:00,
2013-11-24 06:11:00,17.0,15.0,30.21,South,176,0.0,1.0,91,0.00,,,0.00,weatherlink.com 1.10,2013-11-24 13:11:00,
2013-11-24 06:26:00,16.4,14.0,30.21,South,181,0.0,1.0,91,0.00,,,0.00,weatherlink.com 1.10,2013-11-24 13:26:00,
2013-11-24 06:41:00,16.5,14.0,30.21,South,190,1.0,2.0,90,0.00,,,0.00,weatherlink.com 1.10,2013-11-24 13:41:00,
2013-11-24 06:56:00,17.4,16.0,30.21,South,179,0.0,1.0,92,0.00,,,0.00,weatherlink.com 1.10,2013-11-24 13:56:00,
2013-11-24 07:11:00,17.6,16.0,30.20,South,178,0.0,1.0,92,0.00,,,0.00,weatherlink.com 1.10,2013-11-24 14:11:00,
2013-11-24 07:26:00,17.8,16.0,30.21,South,169,0.0,0.0,91,0.00,,,0.00,weatherlink.com 1.10,2013-11-24 14:26:00,
2013-11-24 07:41:00,17.7,16.0,30.22,South,169,0.0,0.0,91,0.00,,,0.00,weatherlink.com 1.10,2013-11-24 14:41:00,
2013-11-24 07:56:00,18.4,17.0,30.22,South,169,0.0,0.0,92,0.00,,,0.00,weatherlink.com 1.10,2013-11-24 14:56:00,
2013-11-24 08:11:00,19.2,17.0,30.21,South,181,0.0,1.0,92,0.00,,,0.00,weatherlink.com 1.10,2013-11-24 15:11:00,
2013-11-24 08:26:00,20.2,18.0,30.21,South,179,0.0,2.0,91,0.00,,,0.00,weatherlink.com 1.10,2013-11-24 15:26:00,
2013-11-24 08:41:00,21.1,19.0,30.21,South,177,0.0,1.0,91,0.00,,,0.00,weatherlink.com 1.10,2013-11-24 15:41:00,
2013-11-24 08:56:00,22.5,20.0,30.20,South,170,0.0,0.0,91,0.00,,,0.00,weatherlink.com 1.10,2013-11-24 15:56:00,
2013-11-24 09:11:00,23.8,21.0,30.19,South,170,0.0,1.0,90,0.00,,,0.00,weatherlink.com 1.10,2013-11-24 16:11:00,
2013-11-24 09:26:00,25.2,22.0,30.18,South,170,0.0,0.0,88,0.00,,,0.00,weatherlink.com 1.10,2013-11-24 16:26:00,
2013-11-24 09:41:00,26.8,24.0,30.18,South,170,0.0,0.0,87,0.00,,,0.00,weatherlink.com 1.10,2013-11-24 16:41:00,
2013-11-24 09:56:00,28.5,24.0,30.17,South,170,0.0,0.0,82,0.00,,,0.00,weatherlink.com 1.10,2013-11-24 16:56:00,
2013-11-24 10:11:00,30.0,24.0,30.17,SSE,166,0.0,0.0,78,0.00,,,0.00,weatherlink.com 1.10,2013-11-24 17:11:00,
2013-11-24 10:26:00,29.7,24.0,30.16,SE,141,0.0,1.0,78,0.00,,,0.00,weatherlink.com 1.10,2013-11-24 17:26:00,
2013-11-24 10:41:00,28.3,24.0,30.16,ESE,103,2.0,4.0,82,0.00,,,0.00,weatherlink.com 1.10,2013-11-24 17:41:00,
2013-11-24 10:56:00,28.0,23.0,30.15,SE,130,1.0,3.0,82,0.00,,,0.00,weatherlink.com 1.10,2013-11-24 17:56:00,
2013-11-24 11:26:00,28.2,24.0,30.13,SE,124,2.0,3.0,83,0.00,,,0.00,weatherlink.com 1.10,2013-11-24 18:26:00,
2013-11-24 11:41:00,28.6,24.0,30.12,SSE,148,0.0,3.0,83,0.00,,,0.00,weatherlink.com 1.10,2013-11-24 18:41:00,
2013-11-24 11:56:00,28.8,24.0,30.11,SE,127,3.0,4.0,82,0.00,,,0.00,weatherlink.com 1.10,2013-11-24 18:56:00,
2013-11-24 12:11:00,28.6,24.0,30.10,SE,125,2.0,5.0,83,0.00,,,0.00,weatherlink.com 1.10,2013-11-24 19:11:00,
2013-11-24 12:26:00,29.1,24.0,30.09,SE,127,2.0,3.0,82,0.00,,,0.00,weatherlink.com 1.10,2013-11-24 19:26:00,
2013-11-24 12:41:00,29.4,24.0,30.08,ESE,120,1.0,3.0,81,0.00,,,0.00,weatherlink.com 1.10,2013-11-24 19:41:00,
2013-11-24 12:56:00,29.6,24.0,30.07,ESE,120,2.0,6.0,81,0.00,,,0.00,weatherlink.com 1.10,2013-11-24 19:56:00,
2013-11-24 13:12:00,29.3,24.0,30.07,SE,131,2.0,6.0,82,0.00,,,0.00,weatherlink.com 1.10,2013-11-24 20:12:00,
2013-11-24 13:27:00,29.2,24.0,30.06,SE,124,2.0,6.0,80,0.00,,,0.00,weatherlink.com 1.10,2013-11-24 20:27:00,
2013-11-24 13:42:00,29.1,24.0,30.06,SE,134,2.0,3.0,80,0.00,,,0.00,weatherlink.com 1.10,2013-11-24 20:42:00,
2013-11-24 13:57:00,28.8,24.0,30.06,SE,143,0.0,3.0,82,0.00,,,0.00,weatherlink.com 1.10,2013-11-24 20:57:00,
2013-11-24 14:12:00,28.5,24.0,30.06,SE,137,1.0,3.0,82,0.00,,,0.00,weatherlink.com 1.10,2013-11-24 21:12:00,
2013-11-24 14:27:00,28.4,24.0,30.06,SE,146,0.0,3.0,83,0.00,,,0.00,weatherlink.com 1.10,2013-11-24 21:27:00,
2013-11-24 14:42:00,28.2,24.0,30.06,SE,131,1.0,4.0,83,0.00,,,0.00,weatherlink.com 1.10,2013-11-24 21:42:00,
2013-11-24 14:57:00,27.9,24.0,30.05,SE,127,1.0,3.0,84,0.00,,,0.00,weatherlink.com 1.10,2013-11-24 21:57:00,
2013-11-24 15:12:00,27.9,24.0,30.05,SE,136,1.0,2.0,84,0.00,,,0.00,weatherlink.com 1.10,2013-11-24 22:12:00,
2013-11-24 15:27:00,27.7,24.0,30.05,ESE,115,1.0,2.0,84,0.00,,,0.00,weatherlink.com 1.10,2013-11-24 22:27:00,
2013-11-24 15:42:00,27.4,24.0,30.05,SE,131,1.0,3.0,85,0.00,,,0.00,weatherlink.com 1.10,2013-11-24 22:42:00,
2013-11-24 15:57:00,26.9,24.0,30.04,SE,139,0.0,2.0,87,0.00,,,0.00,weatherlink.com 1.10,2013-11-24 22:57:00,
2013-11-24 16:12:00,26.7,23.0,30.04,SE,135,0.0,2.0,87,0.00,,,0.00,weatherlink.com 1.10,2013-11-24 23:12:00,
2013-11-24 16:27:00,26.5,23.0,30.04,SE,130,0.0,2.0,88,0.00,,,0.00,weatherlink.com 1.10,2013-11-24 23:27:00,
2013-11-24 16:42:00,26.2,23.0,30.04,SSE,148,0.0,2.0,89,0.00,,,0.00,weatherlink.com 1.10,2013-11-24 23:42:00,
2013-11-24 16:57:00,26.1,24.0,30.04,SSE,152,0.0,0.0,90,0.00,,,0.00,weatherlink.com 1.10,2013-11-24 23:57:00,
2013-11-24 17:12:00,25.9,24.0,30.04,SE,143,0.0,1.0,91,0.00,,,0.00,weatherlink.com 1.10,2013-11-25 00:12:00,
2013-11-24 17:27:00,25.8,24.0,30.04,SE,143,0.0,0.0,91,0.00,,,0.00,weatherlink.com 1.10,2013-11-25 00:27:00,
2013-11-24 17:42:00,25.7,24.0,30.04,SE,143,0.0,0.0,92,0.00,,,0.00,weatherlink.com 1.10,2013-11-25 00:42:00,
2013-11-24 17:57:00,25.7,24.0,30.04,SE,143,0.0,0.0,92,0.00,,,0.00,weatherlink.com 1.10,2013-11-25 00:57:00,
2013-11-24 18:12:00,25.7,24.0,30.04,SE,143,0.0,0.0,92,0.00,,,0.00,weatherlink.com 1.10,2013-11-25 01:12:00,
2013-11-24 18:27:00,25.6,24.0,30.04,SE,143,0.0,0.0,92,0.00,,,0.00,weatherlink.com 1.10,2013-11-25 01:27:00,
2013-11-24 18:42:00,25.6,24.0,30.03,SE,143,0.0,0.0,93,0.00,,,0.00,weatherlink.com 1.10,2013-11-25 01:42:00,
2013-11-24 18:57:00,25.5,24.0,30.03,SE,143,0.0,0.0,93,0.00,,,0.00,weatherlink.com 1.10,2013-11-25 01:57:00,
2013-11-24 19:12:00,25.4,24.0,30.03,SE,143,0.0,0.0,93,0.00,,,0.00,weatherlink.com 1.10,2013-11-25 02:12:00,
2013-11-24 19:27:00,25.4,24.0,30.03,SE,143,0.0,0.0,93,0.00,,,0.00,weatherlink.com 1.10,2013-11-25 02:27:00,
2013-11-24 19:42:00,25.5,24.0,30.03,SE,143,0.0,0.0,93,0.00,,,0.00,weatherlink.com 1.10,2013-11-25 02:42:00,
2013-11-24 19:57:00,25.4,24.0,30.03,SE,143,0.0,0.0,93,0.00,,,0.00,weatherlink.com 1.10,2013-11-25 02:57:00,
2013-11-24 20:12:00,25.4,24.0,30.03,SSE,151,0.0,0.0,93,0.00,,,0.00,weatherlink.com 1.10,2013-11-25 03:12:00,
2013-11-24 20:27:00,25.3,24.0,30.03,SE,138,0.0,0.0,93,0.00,,,0.00,weatherlink.com 1.10,2013-11-25 03:27:00,
2013-11-24 20:42:00,25.1,23.0,30.03,SE,142,0.0,0.0,92,0.00,,,0.00,weatherlink.com 1.10,2013-11-25 03:42:00,
2013-11-24 20:57:00,25.1,23.0,30.02,SE,142,0.0,0.0,92,0.00,,,0.00,weatherlink.com 1.10,2013-11-25 03:57:00,
2013-11-24 21:12:00,25.1,23.0,30.02,SSE,151,0.0,0.0,92,0.00,,,0.00,weatherlink.com 1.10,2013-11-25 04:12:00,
2013-11-24 21:27:00,25.1,23.0,30.03,SSE,148,0.0,0.0,92,0.00,,,0.00,weatherlink.com 1.10,2013-11-25 04:27:00,
2013-11-24 21:42:00,25.1,23.0,30.04,SSE,159,0.0,0.0,92,0.00,,,0.00,weatherlink.com 1.10,2013-11-25 04:42:00,
2013-11-24 21:57:00,25.0,23.0,30.05,ESE,119,0.0,0.0,93,0.00,,,0.00,weatherlink.com 1.10,2013-11-25 04:57:00,
2013-11-24 22:12:00,24.8,23.0,30.05,ESE,120,0.0,0.0,92,0.00,,,0.00,weatherlink.com 1.10,2013-11-25 05:12:00,
2013-11-24 22:27:00,24.6,23.0,30.05,SE,131,0.0,0.0,93,0.00,,,0.00,weatherlink.com 1.10,2013-11-25 05:27:00,
2013-11-24 22:42:00,24.5,23.0,30.06,ESE,120,0.0,0.0,93,0.00,,,0.00,weatherlink.com 1.10,2013-11-25 05:42:00,
2013-11-24 22:57:00,24.4,23.0,30.06,SE,143,0.0,0.0,93,0.00,,,0.00,weatherlink.com 1.10,2013-11-25 05:57:00,
2013-11-24 23:12:00,24.4,22.0,30.06,SE,142,0.0,0.0,92,0.00,,,0.00,weatherlink.com 1.10,2013-11-25 06:12:00,
2013-11-24 23:27:00,24.4,22.0,30.06,SE,140,0.0,0.0,92,0.00,,,0.00,weatherlink.com 1.10,2013-11-25 06:27:00,
2013-11-24 23:42:00,24.4,22.0,30.06,SE,146,0.0,0.0,92,0.00,,,0.00,weatherlink.com 1.10,2013-11-25 06:42:00,
2013-11-24 23:57:00,24.3,22.0,30.07,SE,146,0.0,0.0,92,0.00,,,0.00,weatherlink.com 1.10,2013-11-25 06:57:00,